SCP
0 0 0 0 0 0 0 0 0 0 0 0 0 0 0 0 0 0 0 0 0 0
0 0 0 0 0 0 0 0 0 0 0 0 0 0 0 0 0 0 0 0 0 0
0 0 0 0 0 0 0 0 0 0 0 0 0 0 0 0 0 0 0 0 0 0
0 0 0 0 0 0 0 0 0 0 0 0 0 0 0 0 0 0 0 0 0 0
0 0 0 0 -0 -0 0 0 0 0 0 0 0 0 0 0 0 0 0 0 0 0
0 0 0 -0 -0 0 0 0 0 0 0 0 0 0 0 0 0 0 0 0 0 0
0 0 0 -0 -0 0 0 0 0 0 0 0 0 0 0 0 0 0 0 0 0 0
0 0 0 0 0 0 0 0 0 0 0 0 0 0 0 0 0 0 0 0 0 0
0 0 0 0 0 0 0 0 0 0 0 -0 -0 0 0 0 0 0 0 0 0 0
0 0 0 0 0 0 0 0 -0 -0 -0 -0 -0 0 0 0 0 0 0 0 0 0
0 0 0 0 0 0 0 -0 -0 0 0 0 0 0 0 0 0 0 0 0 0 0
0 0 0 0 0 0 0 0 0 0 0 0 0 0 0 0 0 0 0 0 0 0
0 0 0 0 0 0 0 0 0 0 0 0 0 0 0 0 0 0 0 0 0 0
0 0 0 0 0 0 0 0 0 0 0 0 0 0 0 0 0 0 0 0 0 0
Wind_Speed_500mb
12 15 18 20 19 16 11 11 12 13 12 13 22 24 26 24 27 29 36 40 43 49
18 21 25 28 30 29 28 27 25 23 20 19 22 27 27 30 33 39 43 50 54 56
25 31 36 37 37 41 41 42 42 41 39 36 33 35 39 45 46 49 55 58 58 66
38 48 52 52 54 56 58 57 54 52 52 50 48 48 48 49 52 53 55 57 60 61
32 40 45 57 60 59 61 59 57 57 58 57 55 55 56 57 55 55 59 64 66 65
38 42 48 54 57 63 61 60 57 53 50 51 52 53 55 58 59 59 61 64 66 66
39 48 54 58 62 68 70 67 66 60 56 56 57 57 60 62 63 64 65 64 66 69
47 56 62 66 75 74 71 72 70 70 72 73 73 77 78 78 79 81 82 82 83 84
58 58 66 70 73 76 78 78 79 84 87 91 94 92 93 94 96 95 96 99 100 98
51 56 60 65 70 76 81 83 89 94 101 105 107 100 93 87 87 89 93 96 98 101
49 54 59 65 71 78 85 92 100 104 106 99 87 76 65 61 66 69 70 69 69 68
52 59 67 75 82 89 98 103 105 94 85 69 63 57 56 56 60 63 63 61 59 58
61 69 77 86 93 100 98 91 79 68 60 55 55 51 54 56 57 60 58 55 54 55
75 83 89 93 90 83 74 67 59 56 50 51 56 56 57 49 48 49 51 54 56 57
Wind_Direction_500mb
53 43 39 28 22 22 15 359 8 7 338 279 270 265 270 279 291 267 267 261 260 263
6 358 357 353 348 348 340 331 321 314 296 287 277 265 263 266 265 268 275 276 276 273
334 338 336 333 336 335 331 328 322 318 311 301 291 279 270 266 266 268 266 269 273 275
328 332 330 327 325 323 323 323 319 317 312 309 304 301 292 280 277 277 274 271 271 271
313 318 318 322 318 317 319 319 318 318 317 313 310 307 303 300 295 290 284 278 277 280
302 306 311 320 318 315 314 312 311 311 309 308 308 306 304 301 299 294 291 288 284 282
296 307 315 316 317 314 310 310 311 310 309 309 308 305 302 299 295 292 291 289 289 290
314 313 313 311 313 314 312 308 306 305 303 302 302 301 299 296 294 291 289 286 284 283
310 306 307 308 309 310 310 305 304 304 304 304 301 299 296 294 291 289 287 286 284 281
300 301 302 303 304 304 304 304 304 303 303 302 301 300 298 297 294 292 288 287 286 286
295 298 299 301 301 302 303 305 305 305 303 302 302 303 302 301 299 297 296 294 293 292
300 301 301 301 302 304 306 306 306 305 307 309 309 310 306 305 304 301 300 299 297 296
301 302 303 304 306 306 307 307 308 309 310 312 313 311 309 307 305 301 300 299 295 294
302 304 304 305 306 306 307 308 312 313 314 313 312 307 306 315 313 310 309 306 304 299
Wind_Speed_850mb
12 15 18 20 19 16 11 11 12 13 12 13 22 24 26 24 27 29 36 40 43 49
18 21 25 28 30 29 28 27 25 23 20 19 22 27 27 30 33 39 43 50 54 56
25 31 36 37 37 41 41 42 42 41 39 36 33 35 39 45 46 49 55 58 58 66
38 48 52 52 54 56 58 57 54 52 52 50 48 48 48 49 52 53 55 57 60 61
32 40 45 57 60 59 61 59 57 57 58 57 55 55 56 57 55 55 59 64 66 65
38 42 48 54 57 63 61 60 57 53 50 51 52 53 55 58 59 59 61 64 66 66
39 48 54 58 62 68 70 67 66 60 56 56 57 57 60 62 63 64 65 64 66 69
47 56 62 66 75 74 71 72 70 70 72 73 73 77 78 78 79 81 82 82 83 84
58 58 66 70 73 76 78 78 79 84 87 91 94 92 93 94 96 95 96 99 100 98
51 56 60 65 70 76 81 83 89 94 101 105 107 100 93 87 87 89 93 96 98 101
49 54 59 65 71 78 85 92 100 104 106 99 87 76 65 61 66 69 70 69 69 68
52 59 67 75 82 89 98 103 105 94 85 69 63 57 56 56 60 63 63 61 59 58
61 69 77 86 93 100 98 91 79 68 60 55 55 51 54 56 57 60 58 55 54 55
75 83 89 93 90 83 74 67 59 56 50 51 56 56 57 49 48 49 51 54 56 57
Wind_Direction_850mb
53 43 39 28 22 22 15 359 8 7 338 279 270 265 270 279 291 267 267 261 260 263
6 358 357 353 348 348 340 331 321 314 296 287 277 265 263 266 265 268 275 276 276 273
334 338 336 333 336 335 331 328 322 318 311 301 291 279 270 266 266 268 266 269 273 275
328 332 330 327 325 323 323 323 319 317 312 309 304 301 292 280 277 277 274 271 271 271
313 318 318 322 318 317 319 319 318 318 317 313 310 307 303 300 295 290 284 278 277 280
302 306 311 320 318 315 314 312 311 311 309 308 308 306 304 301 299 294 291 288 284 282
296 307 315 316 317 314 310 310 311 310 309 309 308 305 302 299 295 292 291 289 289 290
314 313 313 311 313 314 312 308 306 305 303 302 302 301 299 296 294 291 289 286 284 283
310 306 307 308 309 310 310 305 304 304 304 304 301 299 296 294 291 289 287 286 284 281
300 301 302 303 304 304 304 304 304 303 303 302 301 300 298 297 294 292 288 287 286 286
295 298 299 301 301 302 303 305 305 305 303 302 302 303 302 301 299 297 296 294 293 292
300 301 301 301 302 304 306 306 306 305 307 309 309 310 306 305 304 301 300 299 297 296
301 302 303 304 306 306 307 307 308 309 310 312 313 311 309 307 305 301 300 299 295 294
302 304 304 305 306 306 307 308 312 313 314 313 312 307 306 315 313 310 309 306 304 299